Vorticity
nan nan nan nan nan nan nan nan nan nan nan nan nan nan nan nan nan nan nan nan nan nan nan nan nan nan nan nan nan nan nan nan nan nan nan nan nan nan nan nan nan nan nan nan nan nan nan nan nan nan nan nan nan nan nan nan nan nan nan nan nan nan nan nan nan nan nan nan nan
nan 11 11 12 13 13 12 10 9 9 10 11 10 10 10 10 9 9 9 9 10 10 9 8 8 8 9 11 13 12 11 10 10 10 9 9 11 12 13 12 12 13 14 15 14 14 15 16 15 13 11 10 10 9 9 12 16 15 12 11 10 10 9 9 10 10 10 9 nan
nan 11 11 11 12 13 12 10 8 8 10 11 10 10 10 10 9 8 8 9 10 10 10 9 7 7 9 11 13 12 11 11 10 10 10 9 10 12 13 13 13 13 14 15 15 16 16 16 14 12 12 12 12 10 9 11 14 13 9 7 9 10 10 8 8 8 8 8 nan
nan 11 10 9 10 12 12 9 8 9 11 11 11 11 11 11 9 9 8 8 9 10 10 10 9 8 8 9 11 12 12 11 11 11 10 10 10 12 13 13 12 12 13 14 14 15 15 14 12 11 12 12 10 10 10 12 13 11 8 7 9 10 10 9 8 8 8 8 nan
nan 10 10 8 9 11 11 9 9 10 11 12 12 12 12 10 10 10 9 9 8 8 9 11 11 9 8 8 9 10 9 10 10 10 9 9 9 10 11 12 12 12 11 12 13 13 12 11 10 10 10 9 9 10 12 12 11 10 10 9 9 9 9 9 9 9 10 10 nan
nan 8 9 9 9 11 12 10 10 11 12 11 12 13 13 11 11 11 11 9 8 7 9 11 12 11 9 8 8 8 8 8 9 9 9 8 8 9 10 11 12 12 12 11 11 11 10 8 8 9 9 9 9 10 12 11 9 9 9 10 9 9 9 10 10 10 11 13 nan
nan 7 7 8 9 11 12 12 12 12 12 10 9 10 11 12 11 11 12 11 9 9 10 9 10 12 11 9 9 8 8 9 9 9 9 9 9 9 9 9 10 11 12 11 11 10 9 8 9 8 8 8 7 8 11 12 11 10 9 10 10 10 9 10 11 11 11 12 nan
nan 8 8 8 8 8 10 12 13 13 13 10 7 7 9 10 10 11 12 12 11 10 11 9 9 12 13 12 10 9 9 9 9 9 9 9 9 9 9 8 8 9 9 10 11 11 11 10 10 9 9 8 8 8 10 13 13 12 11 10 11 11 11 10 12 12 11 9 nan
nan 9 9 9 8 7 8 11 12 13 12 10 8 8 9 10 10 10 10 9 9 10 11 9 8 10 12 12 11 10 9 9 9 9 10 10 10 10 10 8 7 8 8 9 10 11 12 11 10 10 11 11 11 11 10 11 12 11 10 8 11 12 13 13 14 13 12 9 nan
nan 9 9 9 8 9 9 10 10 9 9 9 9 9 10 10 11 10 10 8 9 9 10 9 9 9 9 9 10 10 11 9 8 8 9 10 10 10 11 10 9 10 10 10 9 9 10 11 11 12 13 12 12 12 12 11 11 10 10 10 11 12 12 12 12 12 11 10 nan
nan 10 10 9 9 10 11 10 8 8 7 7 8 9 9 9 10 10 11 10 9 9 10 11 11 10 9 8 8 10 11 11 10 8 8 9 9 10 11 11 10 11 11 12 12 11 11 11 10 11 13 13 10 10 10 11 11 11 12 12 11 9 9 10 10 10 9 9 nan
nan 11 10 9 10 12 12 11 8 7 7 7 8 9 9 9 10 11 11 11 9 8 8 10 11 11 11 9 8 9 10 11 11 10 8 8 9 10 11 11 10 10 10 13 15 15 13 12 11 10 11 13 12 10 9 10 10 9 10 11 9 8 7 9 10 10 10 9 nan
nan 11 10 10 12 13 13 11 8 7 7 7 8 8 8 9 11 12 11 10 8 7 6 8 9 10 10 11 10 10 10 10 10 11 10 9 9 9 10 10 10 10 10 11 14 16 15 13 12 11 10 12 13 12 11 10 9 8 8 8 8 8 8 8 10 11 11 11 nan
nan 11 10 10 13 14 12 10 8 7 7 8 8 8 8 9 11 12 10 9 8 8 7 7 7 9 9 11 11 10 10 10 10 10 10 10 10 10 10 10 10 11 10 10 11 14 14 13 11 10 10 10 12 12 12 11 10 9 8 8 8 8 8 9 10 10 10 10 nan
nan 10 11 12 14 13 11 9 8 8 7 7 8 8 9 9 10 10 10 9 9 9 9 8 7 7 8 9 9 9 9 9 9 9 9 9 10 10 10 10 10 10 11 11 10 10 11 11 10 10 10 9 10 10 11 11 11 11 10 10 10 9 9 10 10 10 9 8 nan
nan 10 11 12 13 13 11 10 9 8 7 7 8 9 10 9 9 9 9 10 10 10 10 10 9 7 6 7 7 8 7 8 7 7 8 8 8 9 9 9 9 9 10 10 10 9 9 9 10 10 10 9 9 9 10 11 11 11 11 12 11 11 11 11 10 9 9 9 nan
nan 10 11 12 11 11 11 11 10 8 8 7 8 9 10 10 9 8 9 10 11 11 11 11 11 9 8 7 8 8 8 8 7 7 8 8 8 8 8 9 9 9 9 9 10 10 10 11 11 10 10 9 9 9 9 10 10 11 11 12 12 12 12 11 10 9 9 9 nan
nan 9 10 10 10 10 10 10 10 9 8 8 9 10 11 12 10 9 9 10 12 12 11 10 11 11 10 9 10 11 10 9 9 9 9 9 9 8 9 9 9 10 10 10 10 9 10 10 10 10 10 9 9 9 9 9 10 10 11 11 11 12 11 10 10 10 10 9 nan
nan 9 9 9 8 8 9 9 9 9 9 9 10 11 11 12 12 11 10 10 12 12 11 10 10 11 11 10 11 11 11 9 10 10 10 10 9 9 9 10 10 10 11 10 10 10 10 10 10 10 11 10 10 10 10 10 10 10 9 9 10 10 10 10 10 11 10 10 nan
nan 9 9 9 9 9 9 9 9 9 9 10 11 12 12 12 12 12 11 10 11 11 11 10 10 10 10 10 11 11 10 9 9 10 10 10 10 10 10 9 9 9 9 9 10 10 11 11 11 11 11 11 11 10 10 9 9 9 8 8 8 9 10 10 10 11 11 11 nan
nan 9 9 9 9 9 10 9 9 8 9 9 11 12 12 11 11 11 11 10 10 11 11 11 11 11 10 10 10 10 10 10 10 10 9 9 9 9 9 9 9 9 9 9 10 10 11 11 11 11 10 10 10 10 9 9 8 8 8 9 8 8 9 9 10 10 11 12 nan
nan 9 9 9 9 9 9 9 8 8 9 10 11 11 11 11 10 10 10 10 10 11 11 10 10 11 11 11 10 10 11 11 11 10 9 8 8 8 9 9 9 10 9 8 9 9 9 10 10 10 10 9 9 9 9 9 8 7 8 9 8 8 8 8 8 9 10 11 nan
nan 10 10 9 10 10 9 8 8 8 9 10 10 10 10 10 10 10 10 11 11 10 10 9 9 10 11 11 11 11 12 12 11 10 9 8 7 7 8 8 9 9 8 7 9 9 9 8 8 8 9 9 8 8 8 8 8 7 7 7 7 7 7 7 7 8 8 9 nan
nan 10 10 10 11 10 9 9 8 9 9 10 10 10 10 10 10 10 10 11 11 11 10 10 10 9 9 10 10 9 9 9 8 8 7 7 7 6 5 6 7 7 7 10 14 15 13 10 8 7 7 8 8 8 7 7 7 7 6 6 6 6 6 7 7 8 8 9 nan
nan 11 10 11 11 11 11 10 10 10 10 9 9 9 10 10 10 10 10 10 10 9 9 9 8 8 7 7 7 6 6 6 6 6 6 6 6 6 5 6 6 7 9 16 19 18 16 15 13 11 8 7 7 7 6 6 7 7 8 7 6 6 6 6 7 7 8 8 nan
nan 10 10 10 11 11 11 11 10 10 9 9 9 9 9 9 10 10 10 9 8 8 7 7 8 8 8 7 7 7 7 7 8 9 10 10 9 9 8 8 9 10 14 20 17 15 14 16 16 14 11 7 7 6 5 5 7 8 9 9 8 8 7 6 6 6 7 7 nan
nan 10 9 10 10 10 10 10 10 10 9 9 9 9 10 10 11 11 10 9 8 8 8 8 9 8 7 8 10 11 12 12 13 14 14 14 14 13 12 11 11 14 18 19 14 12 12 13 12 11 10 9 8 8 8 7 7 8 8 8 9 9 8 7 6 6 7 8 nan
nan 9 9 10 10 10 10 10 10 10 10 9 9 10 10 11 12 11 10 10 10 9 9 9 8 8 7 9 10 12 13 14 13 12 12 13 12 12 12 12 14 18 21 17 12 10 11 10 9 9 8 9 8 8 8 8 6 6 7 8 8 8 8 8 7 7 7 8 nan
nan 10 10 10 10 9 9 10 10 10 9 9 10 10 10 10 10 10 10 10 10 10 10 10 10 10 11 10 10 10 11 11 11 10 10 10 11 11 12 13 15 17 17 13 10 10 10 9 8 8 7 8 8 9 8 8 7 7 8 8 8 9 9 9 9 9 8 8 nan
nan 11 11 10 9 9 9 10 10 10 9 9 9 9 9 9 9 9 9 9 9 11 12 12 12 13 12 11 10 10 10 10 10 10 10 10 11 11 12 13 14 14 13 11 10 10 10 9 9 8 7 7 8 10 10 10 10 9 8 8 9 9 10 9 9 10 10 9 nan
nan 11 11 11 10 10 10 10 10 10 10 10 9 9 9 9 9 8 8 7 8 10 12 12 12 12 11 10 10 10 10 10 10 10 10 9 9 9 10 11 13 14 14 12 10 10 10 10 10 9 8 8 8 10 11 12 11 11 10 9 9 10 10 9 8 9 10 10 nan
nan 11 11 11 11 10 10 10 10 10 10 10 9 9 8 9 8 8 9 8 8 8 9 10 9 8 8 9 10 10 10 10 10 10 9 8 7 8 9 9 12 14 15 12 10 10 11 11 10 9 8 7 8 10 12 11 10 9 9 9 9 9 10 10 9 9 9 9 nan
nan 11 11 11 11 10 10 10 10 10 9 9 9 8 8 8 8 9 9 9 8 8 8 8 7 6 7 8 8 8 8 8 7 8 7 8 8 9 9 9 10 14 14 11 10 10 11 10 9 8 6 5 5 7 10 10 8 8 7 7 7 8 9 10 9 9 8 8 nan
nan 11 11 11 10 10 10 10 10 9 9 9 9 8 8 8 8 9 9 10 9 8 8 7 7 7 8 9 9 8 8 7 6 7 8 9 10 10 10 10 12 15 14 10 10 10 10 9 7 5 3 1 3 6 9 10 9 8 8 7 7 7 8 8 9 9 9 9 nan
nan 11 11 10 10 10 10 10 9 9 9 8 8 8 8 8 8 8 9 10 9 9 8 8 8 9 9 10 10 9 8 7 8 9 10 11 10 9 9 9 14 17 14 11 10 9 9 7 5 3 0 -1 3 7 9 9 9 8 8 7 7 7 8 9 10 10 10 10 nan
nan 11 10 10 10 10 10 9 9 9 8 8 8 7 7 7 7 8 8 8 8 8 8 8 9 9 9 9 8 8 7 7 8 8 9 10 11 9 6 7 13 17 14 11 10 9 8 6 4 1 -2 -1 5 8 9 8 7 7 7 7 6 6 7 9 10 11 11 11 nan
nan 12 11 10 10 10 9 9 9 8 8 8 7 6 6 6 7 8 9 8 7 8 8 8 9 9 9 8 7 6 7 8 9 9 8 9 10 9 8 8 11 13 12 11 9 9 7 5 2 -0 -1 1 7 8 8 7 7 7 7 7 7 7 8 8 9 10 11 12 nan
nan 13 12 11 10 10 9 9 9 9 8 7 7 7 7 7 7 9 10 10 9 8 7 7 7 8 9 9 8 6 7 9 10 10 8 7 9 10 10 8 7 7 12 12 10 9 7 5 2 1 2 5 8 8 7 7 7 7 7 8 8 9 10 10 9 9 9 9 nan
nan 12 12 11 10 10 10 10 10 9 8 7 8 8 8 8 9 10 11 11 11 10 8 7 6 7 9 10 9 7 6 9 10 10 9 8 9 12 12 8 5 5 13 14 11 8 7 6 4 4 4 7 8 8 8 8 8 8 8 8 10 10 11 10 10 10 9 6 nan
nan 11 12 11 10 10 10 10 9 8 8 8 8 7 8 9 10 10 10 10 11 10 9 7 6 7 9 11 10 8 6 7 8 8 8 9 10 12 13 10 7 9 16 17 12 7 7 6 6 4 3 5 8 8 8 8 8 8 8 8 10 10 11 10 11 10 10 7 nan
nan nan nan nan nan nan nan nan nan nan nan nan nan nan nan nan nan nan nan nan nan nan nan nan nan nan nan nan nan nan nan nan nan nan nan nan nan nan nan nan nan nan nan nan nan nan nan nan nan nan nan nan nan nan nan nan nan nan nan nan nan nan nan nan nan nan nan nan nan
CAPE
nan nan nan nan nan nan nan nan 1 1 1 nan nan 0 0 1 3 5 5 5 5 5 5 4 2 1 1 0 nan nan nan nan nan nan nan nan nan nan nan nan nan nan nan nan nan nan nan nan nan nan nan nan nan nan nan nan nan nan nan nan nan nan nan nan nan nan nan nan nan
nan nan nan 0 0 0 nan nan nan nan 0 0 0 0 0 2 3 4 4 4 5 5 5 4 1 0 0 0 nan nan nan nan nan nan nan nan nan nan nan nan nan nan nan nan nan nan nan nan nan nan nan nan nan nan nan nan nan nan nan nan nan nan nan nan nan nan nan nan nan
nan 0 0 0 0 0 0 0 nan nan nan nan 0 0 0 1 2 2 2 3 4 3 3 2 1 0 0 0 nan nan nan nan nan nan nan nan nan nan nan nan nan nan nan nan nan nan nan nan nan nan nan nan nan nan nan nan nan nan nan nan nan nan nan nan nan nan nan nan nan
nan 0 0 0 0 0 0 nan nan nan nan nan nan nan nan nan 0 1 1 0 0 1 1 1 0 0 0 nan nan nan nan nan nan nan nan nan nan nan nan nan nan nan nan nan nan nan nan nan nan nan nan nan nan nan nan nan nan nan nan nan nan nan nan nan nan nan nan nan nan
nan 0 0 0 0 0 nan nan nan nan nan nan nan nan nan nan nan nan nan 0 0 0 0 0 0 nan nan nan nan nan nan nan nan nan nan nan nan nan nan nan nan nan nan nan nan nan nan nan nan nan nan nan nan nan nan nan nan nan nan nan nan nan nan nan nan nan nan nan nan
nan nan nan 0 nan nan nan nan nan nan nan nan nan nan nan nan nan nan nan 0 0 nan nan nan 0 0 0 nan nan nan nan nan nan nan nan nan nan nan nan nan nan nan nan nan nan nan nan nan nan nan nan nan nan nan nan nan nan nan nan nan nan nan nan nan nan nan nan nan nan
nan nan nan nan nan nan nan nan nan nan nan nan nan nan nan nan nan nan nan nan nan nan nan nan nan nan nan nan nan nan nan nan nan nan nan nan nan nan nan nan nan nan nan nan nan nan nan nan nan nan nan nan nan nan nan nan nan nan nan nan nan nan nan nan nan nan nan nan nan
nan nan nan nan nan nan nan nan nan nan nan nan nan nan nan nan nan nan nan nan nan nan nan nan nan nan nan nan nan nan nan nan nan nan nan nan nan nan nan nan nan nan nan nan nan nan nan nan nan nan nan nan nan nan nan nan nan nan nan nan nan nan nan nan nan nan nan nan nan
nan nan nan nan nan nan nan nan nan nan nan nan nan nan nan nan nan nan nan nan nan nan nan nan nan nan nan nan nan nan nan nan nan nan nan nan nan nan nan nan nan nan nan nan nan nan nan nan nan nan nan nan nan nan nan nan nan nan nan nan nan nan nan nan nan nan nan nan nan
nan nan nan nan nan nan nan nan nan nan nan nan nan nan nan nan nan nan nan nan nan nan nan nan nan nan nan nan nan nan nan nan nan nan nan nan nan nan nan nan nan nan nan nan nan nan nan nan nan nan nan nan nan nan nan nan nan nan nan nan nan nan nan nan nan nan nan nan nan
nan nan nan nan nan nan nan nan nan nan nan nan nan nan nan nan nan nan nan nan nan nan nan nan nan nan nan nan nan nan nan nan nan nan nan nan nan nan nan nan nan nan nan nan nan nan nan nan nan nan nan nan nan nan nan nan nan nan nan nan nan nan nan nan nan nan nan nan nan
nan nan nan nan nan nan nan nan nan nan nan 0 nan nan nan nan nan nan nan nan nan nan nan nan nan nan nan nan nan nan nan nan nan nan nan nan nan nan nan nan nan nan nan nan nan nan nan nan nan nan nan nan nan nan nan nan nan nan nan nan nan nan nan nan nan nan nan nan nan
nan nan nan nan nan nan nan 0 nan nan nan nan 0 nan nan nan nan nan nan nan nan nan nan nan nan nan nan nan nan nan nan nan nan nan nan nan nan nan nan nan nan nan nan nan nan nan nan nan nan nan nan nan nan nan nan nan nan nan nan nan nan nan nan nan nan nan nan nan nan
nan nan nan nan nan nan nan 0 0 0 nan nan nan nan nan nan nan nan nan nan nan nan nan nan nan nan nan nan nan nan nan nan nan nan nan nan nan nan nan nan nan nan nan nan nan nan nan nan nan nan nan nan nan nan nan nan nan nan nan nan nan nan nan nan nan nan nan nan nan
nan nan nan nan nan nan nan 0 0 0 0 nan nan nan nan nan nan nan nan nan nan nan nan nan nan nan nan nan nan nan nan nan nan nan nan nan nan nan nan nan nan nan nan nan nan nan nan nan nan nan nan nan nan nan nan nan nan nan nan nan nan nan nan nan nan nan nan nan nan
nan nan nan nan nan nan 0 0 0 0 0 nan nan nan nan nan nan nan nan nan nan nan nan nan nan nan nan nan nan nan nan nan nan nan nan nan nan nan nan nan nan nan nan nan nan nan nan nan nan nan nan nan nan nan nan nan nan nan nan nan nan nan nan nan nan nan nan nan nan
nan nan nan nan 0 0 0 0 0 0 nan nan nan nan nan nan nan nan nan nan nan nan nan nan nan nan nan nan nan nan nan nan nan nan nan nan nan nan nan nan nan nan nan nan nan nan nan nan nan nan nan nan nan nan nan nan nan nan nan nan nan nan nan nan nan nan nan nan nan
nan nan nan nan 0 0 0 nan nan nan nan nan nan nan nan nan nan nan nan nan nan nan nan nan nan nan nan nan nan nan nan nan nan nan nan nan nan nan nan nan nan nan nan nan nan nan nan nan nan nan nan nan nan 0 0 nan 0 0 0 nan nan nan nan nan nan nan nan nan nan
nan nan nan nan nan nan nan 0 nan nan nan nan nan nan nan nan nan nan nan nan nan nan nan nan nan nan nan nan nan nan nan nan nan nan nan nan nan nan nan nan nan nan nan nan nan nan nan nan nan nan nan nan nan nan nan nan nan nan nan nan nan nan nan nan nan nan nan nan nan
nan nan nan nan nan nan nan nan nan nan nan nan nan nan nan nan nan nan nan nan nan nan nan nan nan nan nan nan nan nan nan 0 nan nan nan nan nan nan nan nan nan nan nan nan nan nan nan nan nan nan nan nan nan nan nan nan nan nan nan nan nan nan nan nan nan nan nan nan nan
0 0 0 nan 0 0 0 0 nan nan nan nan nan nan nan nan nan nan nan nan nan nan nan nan nan nan nan nan nan nan nan nan nan nan nan nan nan nan nan nan nan nan nan nan nan nan nan nan nan nan nan nan nan 0 0 nan nan nan nan nan nan nan nan nan nan nan nan nan nan
nan nan nan 0 0 0 0 0 nan nan nan nan nan nan nan nan nan nan nan nan nan nan nan nan nan nan nan nan nan nan nan nan nan nan nan nan nan nan nan nan nan nan nan nan nan nan nan nan nan nan nan nan 0 0 0 0 nan nan nan nan nan nan nan nan nan nan nan nan nan
nan nan nan 0 1 1 1 0 0 0 nan nan nan nan nan nan nan nan nan nan nan nan nan nan nan nan nan nan nan nan nan nan nan nan nan nan nan nan nan nan nan nan nan nan nan nan nan nan nan nan 0 0 1 1 1 1 0 nan nan nan nan nan nan nan nan nan nan nan nan
0 nan nan nan nan nan 0 0 0 0 nan nan nan nan nan nan nan nan nan nan nan nan nan nan nan nan nan nan nan nan nan nan nan nan nan nan nan nan nan nan nan 1 1 0 2 2 2 1 0 0 1 1 0 0 0 0 0 nan nan nan nan nan nan nan nan nan nan nan nan
0 nan nan nan nan nan nan nan nan nan nan nan nan nan nan nan nan nan nan nan nan nan nan nan nan nan nan nan nan nan nan nan nan 0 0 nan nan nan nan nan 0 1 1 3 9 9 7 5 3 3 0 0 0 0 0 nan nan nan nan nan nan nan nan nan nan nan nan nan nan
nan nan nan nan nan nan nan nan nan nan nan nan nan nan nan nan nan nan nan nan nan nan nan nan nan 1 1 nan nan nan nan nan nan 0 0 1 2 3 3 3 2 1 1 6 12 12 10 9 8 8 2 nan nan nan nan nan nan nan nan nan nan nan nan nan nan nan nan nan nan
nan nan nan nan nan nan nan nan nan nan nan nan nan nan nan nan nan nan nan nan nan nan nan nan nan 1 1 nan nan nan nan 0 0 1 1 2 4 4 4 3 2 4 4 11 12 12 12 12 10 10 6 nan nan nan nan nan nan nan nan nan nan nan nan nan nan nan nan nan nan
nan nan nan nan nan nan nan nan nan nan nan nan nan nan nan nan nan nan nan nan nan nan nan nan nan nan nan nan nan nan 0 1 2 2 2 2 3 1 1 1 1 6 6 13 14 14 13 12 12 12 10 1 nan nan nan nan nan nan nan nan nan nan nan nan nan nan nan nan nan
nan nan nan nan nan nan nan nan nan nan nan nan nan nan nan nan nan nan nan nan nan nan nan nan nan nan nan nan nan nan 0 1 1 1 1 0 1 1 1 2 4 13 13 16 15 15 13 13 12 12 11 4 nan nan nan nan nan nan nan nan nan nan nan nan nan nan nan nan nan
nan nan nan nan nan nan nan nan 0 0 nan nan nan nan nan nan nan nan nan nan nan nan nan nan nan nan nan nan nan nan nan nan 0 nan nan nan 0 1 1 2 3 13 13 18 18 18 16 15 12 12 10 5 nan nan nan nan nan nan nan nan nan nan nan nan nan nan nan nan nan
nan nan nan nan nan nan nan nan nan nan nan nan nan nan nan nan nan nan nan nan nan nan nan nan nan nan nan nan nan nan nan nan nan nan nan 0 1 0 0 0 2 16 16 20 18 18 16 15 12 12 10 1 nan nan nan nan nan nan nan nan nan nan nan nan nan nan nan nan nan
nan nan nan nan nan nan nan nan nan nan nan nan nan nan nan nan nan nan nan nan nan nan nan nan nan nan nan nan nan nan nan nan nan 0 0 0 0 nan nan nan 0 17 17 20 19 19 15 14 10 10 3 nan nan nan nan nan nan nan nan nan nan nan nan nan nan nan nan nan nan
nan nan nan nan nan nan nan nan nan nan nan nan nan nan nan nan nan nan nan nan nan nan nan nan nan nan nan nan nan nan nan 1 2 4 4 1 nan 0 0 nan 2 17 17 19 18 18 14 9 2 2 nan nan nan nan nan nan nan nan nan nan nan nan nan nan nan nan nan nan nan
nan nan nan nan nan nan nan nan nan nan nan nan nan nan nan nan nan nan nan nan nan nan nan nan nan nan nan nan nan nan 0 1 nan nan nan nan nan nan nan 1 2 16 16 16 14 14 11 4 nan nan nan nan nan nan nan nan nan nan nan nan nan nan nan nan nan nan nan nan nan
nan nan nan nan nan nan nan nan nan nan nan nan nan nan nan nan nan nan nan nan nan nan nan nan nan nan nan nan nan nan nan nan nan nan nan nan nan nan nan nan nan 11 11 12 12 12 7 0 nan nan nan nan nan nan nan nan nan nan nan nan nan nan nan nan nan nan nan nan nan
nan nan nan nan nan nan nan nan nan nan nan nan nan nan nan nan nan nan nan nan nan nan nan nan nan nan nan nan nan nan nan nan nan nan nan nan nan nan nan nan nan 5 5 8 6 6 2 nan nan nan nan nan nan nan nan nan nan nan nan nan nan nan nan nan nan nan nan nan nan
nan nan nan nan nan nan nan nan nan nan nan nan nan nan nan nan nan nan nan nan nan nan nan nan nan nan nan nan nan nan nan nan nan nan nan nan nan nan nan nan nan nan nan 1 0 0 nan nan nan nan nan nan nan nan nan nan nan nan nan nan nan nan nan nan nan nan nan nan nan
nan nan nan nan nan nan nan nan nan nan nan nan nan nan nan nan nan nan nan nan nan nan nan nan nan nan nan nan nan nan nan nan nan nan nan nan nan nan nan nan nan nan nan nan nan nan nan nan nan nan nan nan nan nan nan nan nan nan nan nan nan nan nan nan nan nan nan nan nan
nan nan nan nan nan nan nan nan nan nan nan nan nan nan nan nan nan nan nan nan nan nan nan nan nan nan nan nan nan nan nan nan nan nan nan nan nan nan nan nan nan nan nan nan nan nan nan nan nan nan nan nan nan nan nan nan nan nan nan nan nan nan nan nan nan nan nan nan nan
nan nan nan nan nan nan nan nan nan nan nan nan nan nan nan nan nan nan nan nan nan nan nan nan nan nan nan nan nan nan nan nan nan nan nan nan nan nan nan nan nan nan nan nan nan nan nan nan nan nan nan nan nan nan nan nan nan nan nan nan nan nan nan nan nan nan nan nan nan
nan nan nan nan nan nan nan nan nan nan nan nan nan nan nan nan nan nan nan nan nan nan nan nan nan nan nan nan nan nan nan nan nan nan nan nan nan nan nan nan nan nan nan nan nan nan nan nan nan nan nan nan nan nan nan nan nan nan nan nan nan nan nan nan nan nan nan nan nan